Location: DARK SKY Beskydy - Park tmavé oblohy, www.darkskybeskydy.cz
(49.4926°N, 18.5016°E)
Time: 09:25:54
(UTC+02:00)

Transit 4A - Pass Details

Date: 01 March 2024
Orbit: 871 x 971 km, 66.8° (Epoch: 24 April)

Event Time Altitude Azimuth Distance (km) Brightness Sun altitude
Rises 05:45:26 0° 318° (NW) 3,527 10.5 -7.7°
Reaches altitude 10° 05:48:49 10° 337° (NNW) 2,567 10.0 -7.2°
Maximum altitude 05:52:51 18° 20° (NNE) 2,009 9.9 -6.5°
Drops below altitude 10° 05:56:51 10° 63° (ENE) 2,533 11.2 -5.9°
Sets 06:00:09 0° 82° (E) 3,463 12.9 -5.3°
